Tracking 19575 objects as of 21-Feb-2019
HD Live streaming from Space Station
objects crossing your sky now

COSMOS 1249 COOLANT

Track COSMOS 1249 COOLANT now!
10-day predictions


NORAD ID: 26506
Int'l Code: 1981-021H
Perigee: 904.6 km
Apogee: 958.0 km
Inclination: 65.0 °
Period: 103.5 minutes
Semi major axis: 7302 km
RCS: 0.0043 m2 (small)
Launch date: March 5, 1981
Source: Commonwealth of Independent States (former USSR) (CIS)
Launch site: TYURATAM MISSILE AND SPACE COMPLEX (TTMTR)

Note: This is SATELLITE DEBRIS
aabbcc
Your satellite tracking list
Your tracking list is empty




NASA's NSSDC Master Catalog

Two Line Element Set (TLE):
1 26506U 81021H   19047.67906935 -.00000040 +00000-0 +39584-4 0  9995
2 26506 064.9585 119.3263 0036599 035.5851 324.7642 13.91280083287305
Source of the keplerian elements: AFSPC